Location: Byszew
(52.1813°N, 19.2693°E)
Time: 14:34:31
(UTC+00:00)

SKYMED 2 - Pass Details

Date: 03 March 2021
Orbit: 621 x 623 km, 97.9° (Epoch: 13 April)

Event Time Altitude Azimuth Distance (km) Brightness Sun altitude
Rises 16:54:43 0° 15° (NNE) 2,918 6.8 -5.2°
Reaches altitude 10° 16:56:56 10° 17° (NNE) 2,007 6.0 -5.5°
Maximum altitude 17:01:18 77° 103° (ESE) 647 3.5 -6.2°
Drops below altitude 10° 17:05:38 10° 190° (S) 1,989 6.3 -6.8°
Sets 17:07:49 0° 192° (SSW) 2,891 7.2 -7.2°
